Cleveland Burke, OH

11:50 PM EDT on May 25, 2017 (GMT -0400)
Burke Lakefront

Weather History for KBKL - January, 2011

Change the Weather History Date:

Thursday, January 13, 2011

  Actual Average Record
Temperature  
Mean Temperature 23 °F -  
Max Temperature 25 °F 31 °F 73 °F (2005)
Min Temperature 21 °F 21 °F 6 °F (1997)
Degree Days  
Heating Degree Days 42    
Moisture  
Dew Point 17 °F    
Average Humidity 76    
Maximum Humidity 86    
Minimum Humidity 71    
Precipitation  
Precipitation 0.00 in - - ()
Sea Level Pressure  
Sea Level Pressure 30.39 in    
Wind  
Wind Speed 15 mph (West)    
Max Wind Speed 18 mph    
Max Gust Speed -    
Visibility 9 miles    
Events Snow    
Averages and records for this station are not official NWS values.
T = Trace of Precipitation, MM = Missing Value Source: NWS Daily Summary

Daily Weather History Graph

Daily Weather History Graph

Search for Another Location

Airport or City:

Trip Planner

Search our weather history database for the weather conditions in past years. The results will help you decide how hot, cold, wet, or windy it might be!

Date:

Astronomy

Jan. 13, 2011 Rise Set
Actual Time 7:51 AM EST 5:19 PM EST
Civil Twilight 7:21 AM EST 5:49 PM EST
Nautical Twilight 6:46 AM EST 6:24 PM EST
Astronomical Twilight 6:13 AM EST 6:57 PM EST
Moon 12:01 PM EST (1/13) 1:47 AM EST (1/13)
Length of Visible Light 10h 28m
Length of Day
9h 27m
First Quarter, 62% of the Moon is Illuminated
Jan 13
First Quarter
Jan 19
Full
Jan 26
Last Quarter
Feb 2
New
Feb 11
First Quarter

Hourly Weather History & Observations

Time (EST) Temp. Windchill Dew Point Humidity Pressure Visibility Wind Dir Wind Speed Gust Speed Precip Events Conditions
12:53 AM 24.1 °F 10.1 °F 18.0 °F 77% 30.30 in 10.0 mi NW 18.4 mph - N/A   Overcast
1:53 AM 24.1 °F 10.1 °F 17.1 °F 75% 30.32 in 10.0 mi WNW 18.4 mph - N/A   Overcast
2:22 AM 24.8 °F 11.1 °F 17.6 °F 74% 30.31 in 10.0 mi WNW 18.4 mph - N/A   Overcast
2:53 AM 23.0 °F 9.2 °F 17.1 °F 78% 30.35 in 10.0 mi WNW 17.3 mph - N/A   Overcast
3:53 AM 23.0 °F 9.6 °F 18.0 °F 81% 30.36 in 10.0 mi WNW 16.1 mph - N/A   Overcast
4:20 AM 23.0 °F 10.6 °F 17.6 °F 80% 30.34 in 10.0 mi West 13.8 mph - N/A   Overcast
4:53 AM 23.0 °F 10.6 °F 18.0 °F 81% 30.37 in 10.0 mi West 13.8 mph - N/A   Overcast
5:09 AM 23.0 °F 10.1 °F 17.6 °F 80% 30.34 in 10.0 mi West 15.0 mph - N/A   Overcast
5:53 AM 23.0 °F 10.1 °F 18.0 °F 81% 30.38 in 10.0 mi WNW 15.0 mph - N/A   Overcast
6:53 AM 24.1 °F 11.5 °F 17.1 °F 75% 30.40 in 10.0 mi WNW 15.0 mph - 0.00 in   Overcast
7:53 AM 24.1 °F 11.5 °F 17.1 °F 75% 30.42 in 10.0 mi NW 15.0 mph - N/A   Overcast
8:53 AM 24.1 °F 11.5 °F 17.1 °F 75% 30.44 in 8.0 mi WNW 15.0 mph - 0.00 in Snow Light Snow
9:53 AM 24.1 °F 13.1 °F 16.0 °F 71% 30.46 in 9.0 mi WNW 11.5 mph - 0.00 in Snow Light Snow
10:53 AM 24.1 °F 11.5 °F 16.0 °F 71% 30.47 in 10.0 mi West 15.0 mph - 0.00 in   Overcast
11:53 AM 23.0 °F 9.2 °F 17.1 °F 78% 30.46 in 10.0 mi West 17.3 mph - 0.00 in Snow Light Snow
12:18 PM 23.0 °F 10.1 °F 17.6 °F 80% 30.43 in 8.0 mi West 15.0 mph - 0.00 in Snow Light Snow
12:53 PM 23.0 °F 12.4 °F 16.0 °F 74% 30.44 in 10.0 mi West 10.4 mph - 0.00 in   Overcast
1:53 PM 24.1 °F 14.4 °F 16.0 °F 71% 30.43 in 10.0 mi West 9.2 mph - N/A   Mostly Cloudy
2:53 PM 25.0 °F 18.1 °F 17.1 °F 72% 30.43 in 10.0 mi West 5.8 mph - N/A   Scattered Clouds
3:53 PM 25.0 °F 13.6 °F 17.1 °F 72% 30.43 in 9.0 mi West 12.7 mph - N/A   Overcast
4:53 PM 25.0 °F 17.1 °F 17.1 °F 72% 30.43 in 10.0 mi West 6.9 mph - N/A   Overcast
5:53 PM 25.0 °F 15.5 °F 17.1 °F 72% 30.43 in 10.0 mi SW 9.2 mph - N/A   Overcast
6:34 PM 24.8 °F 14.6 °F 17.6 °F 74% 30.40 in 10.0 mi SW 10.4 mph - N/A   Overcast
6:53 PM 24.1 °F 13.7 °F 18.0 °F 77% 30.43 in 10.0 mi SW 10.4 mph - N/A   Overcast
7:53 PM 25.0 °F 14.8 °F 18.0 °F 75% 30.42 in 6.0 mi WSW 10.4 mph - 0.00 in   Haze
9:42 PM 24.8 °F 15.3 °F 17.6 °F 74% 30.36 in 10.0 mi WSW 9.2 mph - N/A   Overcast
9:53 PM 24.1 °F 13.7 °F 17.1 °F 75% 30.39 in 10.0 mi WSW 10.4 mph - N/A   Overcast
10:53 PM 23.0 °F 12.4 °F 15.1 °F 72% 30.38 in 10.0 mi SW 10.4 mph - N/A   Overcast
11:48 PM 21.2 °F 8.9 °F 17.6 °F 86% 30.35 in 2.5 mi WSW 12.7 mph - 0.00 in Snow Light Snow
11:53 PM 21.9 °F 10.4 °F 17.1 °F 82% 30.38 in 2.5 mi WSW 11.5 mph - 0.00 in Snow Light Snow